Location: Gad�tanya
(48.0500°N, 20.8500°E)
Time: 11:48:55
(UTC+00:00)

Cosmos 1743 Rocket - Pass Details

Date: 05 July 2020
Orbit: 605 x 632 km, 82.6° (Epoch: 15 August)

Event Time Altitude Azimuth Distance (km) Brightness Sun altitude
Exits shadow 23:12:34 41° 214° (SW) 884 3.9 -18.9°
Maximum altitude 23:13:56 66° 281° (WNW) 665 3.6 -18.9°
Drops below altitude 10° 23:18:17 10° 4° (N) 1,974 7.4 -18.8°
Sets 23:20:32 0° 8° (N) 2,887 8.7 -18.7°
